TimeEST,TemperatureF,Dew PointF,Humidity,Sea Level PressureIn,VisibilityMPH,Wind Direction,Wind SpeedMPH,Gust SpeedMPH,PrecipitationIn,Events,Conditions,WindDirDegrees,DateUTC
12:15 AM,38.3,26.6,63,30.20,10.0,SW,6.9,-,N/A,,Clear,220,2012-12-14 05:15:00
12:34 AM,38.3,26.6,63,30.20,10.0,SW,8.1,-,N/A,,Clear,220,2012-12-14 05:34:00
1:14 AM,37.8,27.0,65,30.19,10.0,SW,6.9,-,N/A,,Clear,230,2012-12-14 06:14:00
1:35 AM,37.6,27.1,66,30.19,10.0,SW,5.8,-,N/A,,Clear,230,2012-12-14 06:35:00
1:54 AM,37.4,27.3,67,30.19,10.0,SW,6.9,-,N/A,,Clear,220,2012-12-14 06:54:00
2:14 AM,37.4,27.3,67,30.19,10.0,SW,8.1,-,N/A,,Clear,220,2012-12-14 07:14:00
2:34 AM,37.4,27.5,67,30.19,10.0,SW,4.6,-,N/A,,Clear,220,2012-12-14 07:34:00
2:54 AM,37.0,27.5,68,30.20,10.0,SW,5.8,-,N/A,,Clear,220,2012-12-14 07:54:00
3:15 AM,36.9,27.5,69,30.20,10.0,SW,5.8,-,N/A,,Clear,230,2012-12-14 08:15:00
3:34 AM,36.7,27.5,69,30.21,10.0,SW,6.9,-,N/A,,Clear,220,2012-12-14 08:34:00
3:55 AM,36.5,27.5,70,30.21,10.0,SW,6.9,-,N/A,,Clear,230,2012-12-14 08:55:00
4:14 AM,36.5,27.5,70,30.20,10.0,SW,6.9,-,N/A,,Clear,230,2012-12-14 09:14:00
4:34 AM,36.1,27.5,71,30.20,10.0,SW,4.6,-,N/A,,Clear,230,2012-12-14 09:34:00
4:55 AM,35.8,27.5,72,30.20,10.0,SW,5.8,-,N/A,,Clear,230,2012-12-14 09:55:00
5:14 AM,35.6,27.5,72,30.20,10.0,SW,6.9,-,N/A,,Clear,230,2012-12-14 10:14:00
5:35 AM,35.1,27.5,74,30.21,10.0,SW,6.9,-,N/A,,Clear,230,2012-12-14 10:35:00
5:54 AM,34.9,27.7,75,30.22,10.0,SW,5.8,-,N/A,,Clear,230,2012-12-14 10:54:00
6:14 AM,34.7,27.9,76,30.22,10.0,WSW,3.5,-,N/A,,Clear,240,2012-12-14 11:14:00
6:35 AM,34.2,28.0,78,30.22,10.0,WSW,4.6,-,N/A,,Clear,240,2012-12-14 11:35:00
6:54 AM,34.0,28.4,80,30.22,10.0,SW,3.5,-,N/A,,Clear,230,2012-12-14 11:54:00
7:15 AM,33.8,28.4,81,30.23,10.0,WSW,5.8,-,N/A,,Clear,240,2012-12-14 12:15:00
7:35 AM,33.8,28.4,81,30.23,10.0,WSW,4.6,-,N/A,,Clear,250,2012-12-14 12:35:00
7:54 AM,33.8,28.4,81,30.23,10.0,WSW,3.5,-,N/A,,Clear,250,2012-12-14 12:54:00
8:15 AM,33.8,28.6,81,30.23,10.0,West,4.6,-,N/A,,Clear,260,2012-12-14 13:15:00
8:34 AM,34.3,28.6,79,30.23,10.0,WSW,4.6,-,N/A,,Clear,250,2012-12-14 13:34:00
8:55 AM,35.2,28.4,76,30.23,10.0,West,3.5,-,N/A,,Clear,260,2012-12-14 13:55:00
9:14 AM,36.1,28.4,73,30.23,10.0,West,4.6,-,N/A,,Clear,270,2012-12-14 14:14:00
9:34 AM,37.4,28.4,70,30.24,10.0,West,5.8,-,N/A,,Clear,260,2012-12-14 14:34:00
9:55 AM,38.5,28.9,69,30.24,10.0,Calm,Calm,-,N/A,,Clear,0,2012-12-14 14:55:00
10:14 AM,39.7,29.3,66,30.25,10.0,Calm,Calm,-,N/A,,Clear,0,2012-12-14 15:14:00
10:35 AM,41.2,29.5,63,30.26,10.0,Calm,Calm,-,N/A,,Clear,0,2012-12-14 15:35:00
10:54 AM,43.3,30.7,61,30.26,10.0,Calm,Calm,-,N/A,,Clear,0,2012-12-14 15:54:00
11:15 AM,44.1,31.8,62,30.26,10.0,Calm,Calm,-,N/A,,Clear,0,2012-12-14 16:15:00
11:35 AM,45.5,32.0,59,30.26,10.0,Calm,Calm,-,N/A,,Clear,0,2012-12-14 16:35:00
11:54 AM,46.6,32.2,57,30.26,10.0,Calm,Calm,-,N/A,,Clear,0,2012-12-14 16:54:00
12:15 PM,47.3,32.2,56,30.25,10.0,Calm,Calm,-,N/A,,Clear,0,2012-12-14 17:15:00
12:35 PM,48.4,32.7,55,30.25,10.0,Calm,Calm,-,N/A,,Clear,0,2012-12-14 17:35:00
12:54 PM,48.2,32.5,55,30.24,10.0,SW,3.5,-,N/A,,Clear,220,2012-12-14 17:54:00
1:15 PM,50.0,30.9,48,30.23,10.0,Calm,Calm,-,N/A,,Clear,0,2012-12-14 18:15:00
1:35 PM,50.0,31.8,50,30.22,10.0,Calm,Calm,-,N/A,,Clear,0,2012-12-14 18:35:00
1:54 PM,50.9,31.1,47,30.22,10.0,Calm,Calm,-,N/A,,Clear,0,2012-12-14 18:54:00
2:15 PM,50.5,30.7,47,30.22,10.0,South,4.6,-,N/A,,Clear,170,2012-12-14 19:15:00
2:35 PM,51.1,30.9,46,30.21,10.0,Calm,Calm,-,N/A,,Clear,0,2012-12-14 19:35:00
2:54 PM,50.0,30.9,48,30.20,10.0,South,4.6,-,N/A,,Clear,180,2012-12-14 19:54:00
3:15 PM,50.0,30.4,47,30.20,10.0,Calm,Calm,-,N/A,,Clear,0,2012-12-14 20:15:00
3:34 PM,50.0,29.5,45,30.20,10.0,South,3.5,-,N/A,,Clear,170,2012-12-14 20:34:00
3:54 PM,50.0,30.2,47,30.20,10.0,Calm,Calm,-,N/A,,Clear,0,2012-12-14 20:54:00
4:15 PM,49.8,30.2,47,30.21,10.0,South,3.5,-,N/A,,Clear,170,2012-12-14 21:15:00
4:34 PM,49.3,30.2,48,30.22,10.0,South,3.5,-,N/A,,Clear,170,2012-12-14 21:34:00
5:15 PM,46.9,30.6,53,30.22,10.0,East,4.6,-,N/A,,Clear,100,2012-12-14 22:15:00
5:34 PM,45.7,32.0,59,30.22,10.0,ESE,4.6,-,N/A,,Clear,110,2012-12-14 22:34:00
5:55 PM,44.6,32.4,62,30.20,10.0,East,3.5,-,N/A,,Clear,100,2012-12-14 22:55:00
6:15 PM,43.7,32.5,65,30.21,10.0,Calm,Calm,-,N/A,,Clear,0,2012-12-14 23:15:00
6:34 PM,43.2,32.9,67,30.22,10.0,East,3.5,-,N/A,,Clear,100,2012-12-14 23:34:00
6:55 PM,40.6,32.2,72,30.24,10.0,Calm,Calm,-,N/A,,Clear,0,2012-12-14 23:55:00
7:14 PM,41.5,32.7,71,30.24,10.0,Calm,Calm,-,N/A,,Clear,0,2012-12-15 00:14:00
7:35 PM,39.7,33.1,77,30.24,10.0,Calm,Calm,-,N/A,,Clear,0,2012-12-15 00:35:00
7:55 PM,38.3,32.9,81,30.24,10.0,Calm,Calm,-,N/A,,Clear,0,2012-12-15 00:55:00
8:14 PM,38.1,32.7,81,30.25,7.0,Calm,Calm,-,N/A,,Clear,0,2012-12-15 01:14:00
8:54 PM,37.9,33.8,85,30.24,7.0,NE,3.5,-,N/A,,Clear,50,2012-12-15 01:54:00
9:15 PM,37.9,33.6,84,30.24,7.0,NE,3.5,-,N/A,,Clear,40,2012-12-15 02:15:00
9:34 PM,37.6,33.8,86,30.24,7.0,NE,3.5,-,N/A,,Clear,40,2012-12-15 02:34:00
9:55 PM,37.6,33.8,86,30.24,7.0,NE,3.5,-,N/A,,Clear,40,2012-12-15 02:55:00
10:14 PM,37.4,33.8,87,30.24,7.0,NE,3.5,-,N/A,,Clear,50,2012-12-15 03:14:00
10:35 PM,36.5,32.9,87,30.24,5.0,NE,3.5,-,N/A,,Clear,50,2012-12-15 03:35:00
10:55 PM,36.5,32.9,87,30.22,7.0,NE,3.5,-,N/A,,Clear,40,2012-12-15 03:55:00
11:14 PM,35.8,32.7,89,30.21,5.0,NE,3.5,-,N/A,,Clear,50,2012-12-15 04:14:00
11:35 PM,36.0,32.9,89,30.20,5.0,NE,3.5,-,N/A,,Clear,50,2012-12-15 04:35:00
11:55 PM,35.6,32.4,88,30.20,5.0,NE,3.5,-,N/A,,Clear,50,2012-12-15 04:55:00